This demonstration page uses our WeatherBlox Daily Observations layout. Learn more.

Left ArrowRight Arrow

Hourly Observations for July 21, 2021

Temp ( °F °C ) Dew Point ( °F °C ) Humidity (%) Winds ( mph kmh ) Pressure ( in mb ) Visibility ( mi km ) Precip ( " mm )
12:56 am 00:56 Clear 66 18.9 63 17.2 90 90 SSE 6 9 30.09 1019 10 16 0.00 0.00
1:56 am 01:56 Mostly Clear 65 18.3 62 16.7 90 90 SE 7 11 30.09 1019 9 14 0.00 0.00
2:56 am 02:56 Clear 64 17.8 62 16.7 93 93 SE 8 13 30.07 1018 9 14 0.00 0.00
3:56 am 03:56 Clear 66 18.9 62 16.7 87 87 SSE 12 19 30.06 1018 10 16 0.00 0.00
4:56 am 04:56 Clear 64 17.8 61 16.1 90 90 S 6 9 30.07 1018 10 16 0.00 0.00
5:56 am 05:56 Clear 63 17.2 61 16.1 93 93 S 8 13 30.09 1019 10 16 0.00 0.00
6:56 am 06:56 Sunny 63 17.2 61 16.1 93 93 S 8 13 30.09 1019 9 14 0.00 0.00
7:56 am 07:56 Sunny 66 18.9 62 16.7 87 87 S 8 13 30.10 1019 9 14 0.00 0.00
8:56 am 08:56 Sunny 69 20.6 63 17.2 81 81 S 10 17 30.11 1020 10 16 0.00 0.00
9:56 am 09:56 Sunny 72 22.2 64 17.8 76 76 SSW 15 24 30.10 1019 10 16 0.00 0.00
10:56 am 10:56 Sunny 74 23.3 64 17.8 71 71 S 13 20 30.10 1019 10 16 0.00 0.00
11:56 am 11:56 Sunny 78 25.6 65 18.3 64 64 SSW 18 30 30.09 1019 10 16 0.00 0.00
12:56 pm 12:56 Mostly Sunny 80 26.7 65 18.3 60 60 SSW 18 30 30.07 1018 10 16 0.00 0.00
1:56 pm 13:56 Sunny 82 27.8 65 18.3 56 56 S 16 26 30.05 1018 10 16 0.00 0.00
2:56 pm 14:56 Mostly Sunny 83 28.3 64 17.8 53 53 S 21 33 30.04 1017 10 16 0.00 0.00
3:56 pm 15:56 Mostly Sunny 83 28.3 64 17.8 53 53 S 15 24 30.03 1017 10 16 0.00 0.00
4:56 pm 16:56 Sunny 83 28.3 64 17.8 53 53 SSE 16 26 30.02 1017 10 16 0.00 0.00
5:56 pm 17:56 Sunny 82 27.8 64 17.8 55 55 SSE 14 22 30.01 1016 10 16 0.00 0.00
6:56 pm 18:56 Sunny 81 27.2 64 17.8 57 57 SSE 14 22 30.00 1016 10 16 0.00 0.00
7:56 pm 19:56 Sunny 77 25 65 18.3 66 66 SE 10 17 30.00 1016 10 16 0.00 0.00
8:56 pm 20:56 Sunny 72 22.2 64 17.8 76 76 SE 9 15 30.01 1016 10 16 0.00 0.00
9:56 pm 21:56 Clear 71 21.7 62 16.7 73 73 SSE 10 17 30.02 1017 9 14 0.00 0.00
10:56 pm 22:56 Clear 69 20.6 61 16.1 76 76 SSE 9 15 30.04 1017 9 14 0.00 0.00
11:56 pm 23:56 Clear 69 20.6 60 15.6 73 73 S 12 19 30.03 1017 10 16 0.00 0.00

Powered by AerisWeather